DW9516 Carolina PR US current weather conditions

sailwx.info

Wind from 049 at 0 knots gusting 2

Air temperature 25.6° C
Dewpoint 23.6° C

Last reported at 2019-Aug-26 08:05 UTC.
Time now 2019-Aug-26 09:01 UTC

Location: N 18°21' W 066°11'.
View on Google Maps.

See reports from other nearby stations

  
Tides and Currents Weather Stations Pressure Air Temp Water Temp Dewpoint Dewpoint Depression Visibility Wind Speed Wind Dir Waves Ship Positions
date/time (UTC)wind fromknots sea level pressurealtimeterstation pressurevisibilityair tempwater tempwave heightnotes
2019-Aug-26 08:05 049 0 gusting 2 25.6
2019-Aug-26 08:02 022 25.6
2019-Aug-26 07:55 036 1 gusting 3 25.6
2019-Aug-26 07:50 052 0 gusting 3 25.6
2019-Aug-26 07:46 004 0 gusting 2 25.6
2019-Aug-26 07:40 035 0 gusting 2 25.6
2019-Aug-26 07:35 043 0 gusting 1 25.6
2019-Aug-26 07:31 005 25.6
2019-Aug-26 07:25 289 1 gusting 3 25.6
2019-Aug-26 07:20 027 25.6
2019-Aug-26 07:16 027 25.6
2019-Aug-26 07:10 025 25.6
2019-Aug-26 07:05 033 25.6
2019-Aug-26 07:00 037 25.6
2019-Aug-26 06:55 032 0 gusting 2 25.6
2019-Aug-26 06:50 028 0 gusting 3 26.1
2019-Aug-26 06:45 015 1 gusting 4 26.1
2019-Aug-26 06:40 023 1 gusting 5 26.1
2019-Aug-26 06:35 029 2 gusting 6 26.1
2019-Aug-26 06:30 001 3 gusting 6 26.1
2019-Aug-26 06:25 025 2 gusting 6 26.1
2019-Aug-26 06:20 034 2 gusting 5 26.1
2019-Aug-26 06:15 023 2 gusting 5 26.1
2019-Aug-26 06:10 021 2 gusting 5 26.1
2019-Aug-26 06:05 033 2 gusting 6 26.1
2019-Aug-26 06:00 026 3 gusting 6 26.1
2019-Aug-26 05:55 013 3 gusting 5 26.1
2019-Aug-26 05:50 087 1 gusting 3 26.1
2019-Aug-26 05:45 041 0 gusting 2 26.1
2019-Aug-26 05:40 031 26.1
2019-Aug-26 05:35 031 0 gusting 3 26.1
2019-Aug-26 05:30 019 1 gusting 3 26.1
2019-Aug-26 05:25 045 26.1
2019-Aug-26 05:20 030 0 gusting 2 26.1
2019-Aug-26 05:15 035 26.1
2019-Aug-26 05:10 036 1 gusting 3 26.1
2019-Aug-26 05:05 039 0 gusting 4 26.1
2019-Aug-26 04:55 037 0 gusting 3 26.1
2019-Aug-26 04:50 034 1 gusting 4 26.1
2019-Aug-26 04:40 019 3 gusting 6 26.1
2019-Aug-26 04:35 029 3 gusting 6 26.1
2019-Aug-26 04:30 033 2 gusting 5 26.1
2019-Aug-26 04:25 030 0 gusting 3 26.1
2019-Aug-26 04:20 025 0 gusting 2 26.1
2019-Aug-26 04:15 035 0 gusting 2 26.1
2019-Aug-26 04:10 046 0 gusting 3 26.1
2019-Aug-26 04:05 034 1 gusting 4 26.1
2019-Aug-26 04:00 025 2 gusting 6 26.1
2019-Aug-26 03:51 033 3 gusting 6 26.1
2019-Aug-26 03:49 359 1 gusting 5 26.1
2019-Aug-26 03:41 356 1 gusting 4 26.1
2019-Aug-26 03:36 056 1 gusting 3 26.1
2019-Aug-26 03:32 110 0 gusting 4 26.1
2019-Aug-26 03:26 037 1 gusting 4 26.1
2019-Aug-26 03:21 027 2 gusting 4 26.1
2019-Aug-26 03:10 039 3 gusting 6 26.1
2019-Aug-26 03:05 031 4 gusting 6 26.1
2019-Aug-26 03:02 025 3 gusting 6 26.1
2019-Aug-26 02:55 042 5 gusting 6 26.1
2019-Aug-26 02:50 042 2 gusting 7 26.7
2019-Aug-26 02:47 036 2 gusting 7 26.7
2019-Aug-26 02:40 237 1 gusting 4 26.7
2019-Aug-26 02:36 014 2 gusting 6 26.7
2019-Aug-26 02:32 037 2 gusting 6 26.7
2019-Aug-26 02:25 030 2 gusting 6 26.7
2019-Aug-26 02:21 013 3 gusting 5 26.7
2019-Aug-26 02:16 018 2 gusting 5 26.7
2019-Aug-26 02:10 025 1 gusting 3 26.7
2019-Aug-26 02:06 012 2 gusting 3 26.7
2019-Aug-26 02:01 030 0 gusting 2 26.7
2019-Aug-26 01:56 065 0 gusting 3 26.7
2019-Aug-26 01:51 227 0 gusting 3 26.7
2019-Aug-26 01:48 023 26.7
2019-Aug-26 01:41 030 0 gusting 5 26.7
2019-Aug-26 01:36 357 1 gusting 5 26.7
2019-Aug-26 01:32 034 2 gusting 5 26.7
2019-Aug-26 01:25 023 2 gusting 6 26.7
2019-Aug-26 01:20 015 1 gusting 8 27.2
2019-Aug-26 01:16 041 2 gusting 8 27.2
2019-Aug-26 01:10 029 4 gusting 6 27.2
2019-Aug-26 01:05 027 1 gusting 5 27.2
2019-Aug-26 01:01 037 2 gusting 4 27.2
2019-Aug-26 00:56 070 1 gusting 6 27.2
2019-Aug-26 00:51 021 4 gusting 6 27.2
2019-Aug-26 00:47 089 2 gusting 7 27.2
2019-Aug-26 00:40 021 4 gusting 7 27.2
2019-Aug-26 00:35 251 2 gusting 7 27.2
2019-Aug-26 00:33 035 4 gusting 8 27.2
2019-Aug-26 00:25 027 4 gusting 8 27.2
2019-Aug-26 00:20 352 2 gusting 7 27.8
2019-Aug-26 00:16 020 4 gusting 10 27.8
2019-Aug-26 00:10 006 6 gusting 12 27.8
2019-Aug-26 00:05 049 6 gusting 12 27.8
2019-Aug-26 00:02 352 6 gusting 11 27.8
2019-Aug-25 23:55 028 6 gusting 12 27.8
2019-Aug-25 23:50 050 6 gusting 12 27.8
2019-Aug-25 23:46 025 6 gusting 9 27.8
2019-Aug-25 23:40 028 5 gusting 9 27.8
2019-Aug-25 23:35 330 4 gusting 10 27.8
2019-Aug-25 23:33 023 5 gusting 10 27.8
2019-Aug-25 23:25 011 3 gusting 8 27.8
2019-Aug-25 23:20 018 6 gusting 8 28.3
2019-Aug-25 23:16 043 5 gusting 8 28.3
2019-Aug-25 23:10 352 4 gusting 10 28.3
2019-Aug-25 23:05 304 6 gusting 10 28.3
2019-Aug-25 23:00 041 6 gusting 12 28.3
2019-Aug-25 22:55 015 8 gusting 11 28.3
2019-Aug-25 22:50 024 3 gusting 10 28.9
2019-Aug-25 22:45 041 5 gusting 13 28.9
2019-Aug-25 22:40 001 6 gusting 13 28.9
2019-Aug-25 22:35 019 7 gusting 13 28.9
2019-Aug-25 22:30 094 6 gusting 13 28.9
2019-Aug-25 22:25 003 5 gusting 12 29.4
2019-Aug-25 22:20 034 7 gusting 12 29.4
2019-Aug-25 22:16 033 6 gusting 13 29.4
2019-Aug-25 22:10 017 6 gusting 14 29.4
2019-Aug-25 22:05 042 8 gusting 14 29.4
2019-Aug-25 22:00 027 7 gusting 14 30.0
2019-Aug-25 21:55 023 5 gusting 17 30.0
2019-Aug-25 21:50 025 8 gusting 15 30.0
2019-Aug-25 21:46 044 8 gusting 17 30.0
2019-Aug-25 21:40 066 10 gusting 17 30.0
2019-Aug-25 21:35 355 6 gusting 17 30.6
2019-Aug-25 21:31 041 8 gusting 17 30.6
2019-Aug-25 21:25 030 10 gusting 15 30.6
2019-Aug-25 21:20 017 6 gusting 13 31.1
2019-Aug-25 21:16 044 5 gusting 15 31.1
2019-Aug-25 21:10 023 9 gusting 15 31.1
2019-Aug-25 21:05 008 9 gusting 14 31.1
2019-Aug-25 21:00 311 7 gusting 13 31.1
2019-Aug-25 20:55 021 7 gusting 15 31.1
2019-Aug-25 20:50 030 10 gusting 15 31.1
2019-Aug-25 20:46 322 9 gusting 13 31.1
2019-Aug-25 20:40 023 5 gusting 14 31.7
2019-Aug-25 20:35 053 6 gusting 14 31.7
2019-Aug-25 20:30 042 6 gusting 13 31.7
2019-Aug-25 20:25 037 6 gusting 14 31.7
2019-Aug-25 20:20 077 6 gusting 14 31.7
2019-Aug-25 20:15 061 6 gusting 13 31.7
2019-Aug-25 20:10 033 7 gusting 13 31.7
2019-Aug-25 20:05 108 4 gusting 13 31.7
2019-Aug-25 20:00 029 6 gusting 14 31.7
2019-Aug-25 19:55 033 7 gusting 14 31.7
2019-Aug-25 19:50 037 3 gusting 13 31.7
2019-Aug-25 19:45 044 4 gusting 15 31.7
2019-Aug-25 19:40 351 6 gusting 15 31.7
2019-Aug-25 19:35 034 6 gusting 15 31.7
2019-Aug-25 19:30 017 6 gusting 16 31.7
2019-Aug-25 19:25 066 11 gusting 19 31.7
2019-Aug-25 19:20 008 9 gusting 17 32.2
2019-Aug-25 19:15 143 6 gusting 13 32.2
2019-Aug-25 19:10 041 4 gusting 13 32.2
2019-Aug-25 19:05 354 7 gusting 15 32.2
2019-Aug-25 19:01 004 8 gusting 15 32.2
2019-Aug-25 18:55 029 7 gusting 13 32.2
2019-Aug-25 18:50 330 6 gusting 16 32.2
2019-Aug-25 18:46 061 9 gusting 15 32.2
2019-Aug-25 18:40 011 10 gusting 15 32.2
2019-Aug-25 18:35 340 7 gusting 15 32.2
2019-Aug-25 18:30 022 9 gusting 18 32.2
2019-Aug-25 18:25 335 8 gusting 16 32.8
2019-Aug-25 18:20 054 6 gusting 14 32.8
2019-Aug-25 18:15 355 4 gusting 16 32.8
2019-Aug-25 18:10 027 8 gusting 14 32.8
2019-Aug-25 18:05 347 6 gusting 14 32.8
2019-Aug-25 17:55 013 6 gusting 13 32.2
2019-Aug-25 17:50 018 7 gusting 13 32.8
2019-Aug-25 17:40 338 8 gusting 14 32.8
2019-Aug-25 17:35 034 9 gusting 16 32.2
2019-Aug-25 17:25 019 8 gusting 14 32.2
2019-Aug-25 17:20 076 6 gusting 13 32.2
2019-Aug-25 17:10 042 3 gusting 18 32.2
2019-Aug-25 17:05 024 12 gusting 18 32.2
2019-Aug-25 16:55 011 7 gusting 15 32.2
2019-Aug-25 16:50 026 6 gusting 17 32.2
2019-Aug-25 16:40 031 5 gusting 13 32.2
2019-Aug-25 16:35 068 6 gusting 13 32.2
2019-Aug-25 16:25 032 7 gusting 18 32.2
2019-Aug-25 16:20 083 6 gusting 16 32.2
2019-Aug-25 16:15 032 4 gusting 15 31.7
2019-Aug-25 16:10 013 9 gusting 15 31.7
2019-Aug-25 16:05 027 4 gusting 12 32.2
2019-Aug-25 15:55 281 7 gusting 17 31.7
2019-Aug-25 15:50 342 9 gusting 16 31.7
2019-Aug-25 15:45 027 8 gusting 15 31.7
2019-Aug-25 15:40 008 10 gusting 19 31.1
2019-Aug-25 15:35 024 12 gusting 19 31.1
2019-Aug-25 15:30 050 11 gusting 15 31.1
2019-Aug-25 15:25 030 6 gusting 18 31.1
2019-Aug-25 15:20 028 8 gusting 18 31.1
2019-Aug-25 15:15 183 7 gusting 14 31.1
2019-Aug-25 15:10 025 7 gusting 19 31.1
2019-Aug-25 15:05 063 6 gusting 19 30.6
2019-Aug-25 15:00 342 9 gusting 17 30.6
2019-Aug-25 14:55 020 10 gusting 17 31.1
2019-Aug-25 14:50 269 10 gusting 16 30.6
2019-Aug-25 14:45 044 10 gusting 19 30.6
2019-Aug-25 14:32 212 9 gusting 19 30.6
2019-Aug-25 14:26 011 9 gusting 19 30.6
2019-Aug-25 14:21 086 7 gusting 17 30.6
2019-Aug-25 14:17 025 6 gusting 17 30.6
2019-Aug-25 14:10 294 9 gusting 17 30.6
2019-Aug-25 14:06 344 5 gusting 16 30.6
2019-Aug-25 14:01 316 6 gusting 17 30.0
2019-Aug-25 13:55 058 8 gusting 18 30.0
2019-Aug-25 13:50 012 8 gusting 18 30.0
2019-Aug-25 13:46 284 6 gusting 15 30.0
2019-Aug-25 13:40 155 5 gusting 13 30.0
2019-Aug-25 13:35 359 3 gusting 15 30.0
2019-Aug-25 13:32 056 7 gusting 15 30.0
2019-Aug-25 13:25 356 9 gusting 13 29.4
2019-Aug-25 13:20 008 6 gusting 15 29.4
2019-Aug-25 13:17 025 8 gusting 15 29.4
2019-Aug-25 13:10 316 6 gusting 19 29.4
2019-Aug-25 13:05 051 8 gusting 19 28.9
2019-Aug-25 13:01 027 9 gusting 16 28.9
2019-Aug-25 12:55 338 5 gusting 18 28.9
2019-Aug-25 12:50 342 11 gusting 18 28.9
2019-Aug-25 12:46 024 9 gusting 14 28.9
2019-Aug-25 12:40 323 8 gusting 14 28.9
2019-Aug-25 12:35 065 7 gusting 14 28.9
2019-Aug-25 12:31 356 6 gusting 16 28.9
2019-Aug-25 12:25 025 10 gusting 16 28.3
2019-Aug-25 12:20 023 4 gusting 11 28.3
2019-Aug-25 12:16 084 5 gusting 10 28.3
2019-Aug-25 12:10 290 6 gusting 13 28.3
2019-Aug-25 12:05 026 7 gusting 13 27.8
2019-Aug-25 12:00 009 9 gusting 13 27.8
2019-Aug-25 11:55 340 6 gusting 10 27.8
2019-Aug-25 11:50 013 6 gusting 10 27.8
2019-Aug-25 11:46 046 5 gusting 12 27.8
2019-Aug-25 11:40 035 6 gusting 12 27.8
2019-Aug-25 11:35 307 2 gusting 6 27.8
2019-Aug-25 11:30 046 27.8
2019-Aug-25 11:25 043 1 gusting 3 27.2
2019-Aug-25 11:20 043 0 gusting 2 27.8
2019-Aug-25 11:16 010 27.2
2019-Aug-25 11:10 022 0 gusting 3 27.2
2019-Aug-25 11:05 023 0 gusting 3 26.7
2019-Aug-25 11:01 309 26.7
2019-Aug-25 10:55 243 26.7
2019-Aug-25 10:50 241 26.1
2019-Aug-25 10:46 242 26.1
2019-Aug-25 10:40 242 26.1
2019-Aug-25 10:35 242 25.6
2019-Aug-25 10:30 242 25.6
2019-Aug-25 10:25 359 26.1
2019-Aug-25 10:20 360 26.1
2019-Aug-25 10:15 360 26.1
2019-Aug-25 10:10 344 26.1
2019-Aug-25 10:05 071 26.1
2019-Aug-25 10:01 008 26.1
2019-Aug-25 09:55 008 26.1
2019-Aug-25 09:50 018 0 gusting 5 26.1
2019-Aug-25 09:45 039 3 gusting 5 26.1
2019-Aug-25 09:40 027 2 gusting 5 26.1
2019-Aug-25 09:35 034 2 gusting 5 26.1
2019-Aug-25 09:30 020 0 gusting 5 26.1
2019-Aug-25 09:25 006 2 gusting 5 26.1
2019-Aug-25 09:20 359 2 gusting 4 26.1
2019-Aug-25 09:15 342 1 gusting 4 26.1
2019-Aug-25 09:10 001 26.1
2019-Aug-25 09:05 041 1 gusting 5 26.1
2019-Aug-25 09:00 027 3 gusting 5 26.1
2019-Aug-25 08:55 037 2 gusting 6 26.1
2019-Aug-25 08:50 026 3 gusting 6 26.1
2019-Aug-25 08:45 017 2 gusting 6 26.1
2019-Aug-25 08:40 124 0 gusting 11 26.1
2019-Aug-25 08:35 014 3 gusting 11 26.1
2019-Aug-25 08:30 286 1 gusting 6 26.1
2019-Aug-25 08:25 032 2 gusting 5 26.1
2019-Aug-25 08:15 014 4 gusting 10 26.1
2019-Aug-25 08:10 034 5 gusting 10 26.1
2019-Aug-25 08:05 115 5 gusting 8 26.1
2019-Aug-25 08:00 278 4 gusting 8 26.1
2019-Aug-25 07:55 023 2 gusting 6 26.1
2019-Aug-25 07:45 323 2 gusting 9 26.1
2019-Aug-25 07:40 148 5 gusting 9 26.1
2019-Aug-25 07:30 020 5 gusting 9 26.1
2019-Aug-25 07:25 032 5 gusting 9 26.1
2019-Aug-25 07:20 037 5 gusting 8 26.1
2019-Aug-25 07:10 005 3 gusting 6 26.7
2019-Aug-25 07:05 200 3 gusting 10 26.7
2019-Aug-25 06:55 300 5 gusting 9 26.7
2019-Aug-25 06:50 053 4 gusting 8 26.7
2019-Aug-25 06:45 353 5 gusting 8 26.7
2019-Aug-25 06:40 079 3 gusting 8 26.7
2019-Aug-25 06:35 224 5 gusting 9 26.7
2019-Aug-25 06:30 027 6 gusting 9 26.7
2019-Aug-25 06:25 054 6 gusting 9 26.7
2019-Aug-25 06:20 037 4 gusting 7 26.7
2019-Aug-25 06:15 058 3 gusting 7 26.7
2019-Aug-25 06:10 021 2 gusting 7 26.7
2019-Aug-25 06:05 032 5 gusting 8 26.7
2019-Aug-25 05:56 023 5 gusting 8 26.7
2019-Aug-25 05:55 031 4 gusting 8 26.7
2019-Aug-25 05:47 097 6 gusting 8 26.7
2019-Aug-25 05:40 027 6 gusting 8 26.7
2019-Aug-25 05:35 014 4 gusting 7 26.7
2019-Aug-25 05:31 051 5 gusting 8 26.7
2019-Aug-25 05:25 027 5 gusting 8 26.7
2019-Aug-25 05:20 018 4 gusting 7 26.7
2019-Aug-25 05:16 032 4 gusting 6 26.7
2019-Aug-25 05:10 020 2 gusting 9 26.7
2019-Aug-25 05:05 355 6 gusting 9 26.7
2019-Aug-25 05:01 359 4 gusting 8 26.7
2019-Aug-25 04:55 319 4 gusting 8 26.7
2019-Aug-25 04:50 023 5 gusting 8 26.7
2019-Aug-25 04:47 023 3 gusting 9 26.7
2019-Aug-25 04:40 036 6 gusting 10 26.7
2019-Aug-25 04:36 311 5 gusting 10 26.7
2019-Aug-25 04:32 023 6 gusting 11 26.7
2019-Aug-25 04:25 051 6 gusting 11 26.7
2019-Aug-25 04:20 037 6 gusting 9 26.7
2019-Aug-25 04:16 012 4 gusting 7 26.7
2019-Aug-25 04:10 028 3 gusting 7 26.7
2019-Aug-25 04:05 056 3 gusting 6 26.7
2019-Aug-25 04:01 013 2 gusting 6 26.7
2019-Aug-25 03:55 354 3 gusting 6 26.7
2019-Aug-25 03:50 012 4 gusting 6 26.7
2019-Aug-25 03:46 347 3 gusting 9 26.7
2019-Aug-25 03:40 032 3 gusting 9 26.7
2019-Aug-25 03:35 026 4 gusting 7 26.7
2019-Aug-25 03:30 302 3 gusting 7 26.7
2019-Aug-25 03:25 040 2 gusting 6 26.7
2019-Aug-25 03:20 026 3 gusting 5 26.7
2019-Aug-25 03:16 020 0 gusting 6 26.7
2019-Aug-25 03:10 014 2 gusting 6 26.7
2019-Aug-25 03:05 071 2 gusting 5 26.7
2019-Aug-25 03:01 074 2 gusting 6 26.7
2019-Aug-25 02:55 209 2 gusting 7 26.7
2019-Aug-25 02:50 023 4 gusting 7 26.7
2019-Aug-25 02:47 021 2 gusting 5 27.2
2019-Aug-25 02:40 020 1 gusting 6 27.2
2019-Aug-25 02:35 058 4 gusting 8 27.2
2019-Aug-25 02:31 353 4 gusting 8 27.2
2019-Aug-25 02:25 013 4 gusting 9 27.2
2019-Aug-25 02:20 345 2 gusting 6 27.2
2019-Aug-25 02:15 030 2 gusting 6 27.2
2019-Aug-25 02:10 025 5 gusting 6 27.2
2019-Aug-25 02:05 025 3 gusting 7 27.2
2019-Aug-25 02:01 025 3 gusting 6 27.2
2019-Aug-25 01:55 046 2 gusting 7 27.2
2019-Aug-25 01:50 088 2 gusting 7 27.2
2019-Aug-25 01:45 009 4 gusting 6 27.2
2019-Aug-25 01:40 312 4 gusting 8 27.2
2019-Aug-25 01:35 023 6 gusting 8 27.2
2019-Aug-25 01:31 319 1 gusting 7 27.2
2019-Aug-25 01:25 328 4 gusting 7 27.2
2019-Aug-25 01:20 013 0 gusting 4 27.2
2019-Aug-25 01:15 022 1 gusting 6 27.2
2019-Aug-25 01:10 020 2 gusting 6 27.2
2019-Aug-25 01:05 025 2 gusting 6 27.8
2019-Aug-25 01:01 040 3 gusting 6 27.2
2019-Aug-25 00:55 017 3 gusting 6 27.8
2019-Aug-25 00:50 076 0 gusting 6 27.8
2019-Aug-25 00:46 048 1 gusting 6 27.8
2019-Aug-25 00:40 034 2 gusting 6 27.8
2019-Aug-25 00:35 023 2 gusting 6 27.8
2019-Aug-25 00:31 018 2 gusting 6 27.8
2019-Aug-25 00:25 084 4 gusting 6 27.8
2019-Aug-25 00:20 027 0 gusting 5 27.8
2019-Aug-25 00:16 183 3 gusting 6 27.8
2019-Aug-25 00:05 032 2 gusting 6 27.8
2019-Aug-25 00:00 349 3 gusting 6 27.8
2019-Aug-24 23:55 351 2 gusting 6 28.3
2019-Aug-24 23:50 027 1 gusting 7 28.3
2019-Aug-24 23:47 032 3 gusting 7 28.3
2019-Aug-24 23:40 026 3 gusting 9 28.3
2019-Aug-24 23:35 015 5 gusting 9 28.3
2019-Aug-24 23:30 047 3 gusting 10 28.3
2019-Aug-24 23:25 028 5 gusting 10 28.3
2019-Aug-24 23:20 088 3 gusting 8 28.3
2019-Aug-24 23:16 102 3 gusting 7 28.3
2019-Aug-24 23:10 328 4 gusting 6 28.9
2019-Aug-24 23:05 253 3 gusting 8 28.9
2019-Aug-24 23:01 323 1 gusting 8 28.9
2019-Aug-24 22:55 013 3 gusting 7 28.9
2019-Aug-24 22:50 082 5 gusting 7 28.9
2019-Aug-24 22:46 058 3 gusting 7 28.9
2019-Aug-24 22:40 040 3 gusting 10 28.9
2019-Aug-24 22:35 030 6 gusting 12 28.9
2019-Aug-24 22:30 034 6 gusting 14 28.9
2019-Aug-24 22:25 023 9 gusting 14 29.4
2019-Aug-24 22:20 030 8 gusting 13 29.4
2019-Aug-24 22:15 019 7 gusting 13 29.4
2019-Aug-24 22:10 024 6 gusting 15 29.4
2019-Aug-24 22:05 020 5 gusting 16 29.4
2019-Aug-24 22:01 357 6 gusting 10 29.4
2019-Aug-24 21:55 068 5 gusting 16 29.4
2019-Aug-24 21:45 300 8 gusting 15 30.0
2019-Aug-24 21:30 335 6 gusting 12 30.0
2019-Aug-24 21:25 070 6 gusting 12 30.0
2019-Aug-24 21:10 127 6 gusting 13 29.4
2019-Aug-24 21:02 077 5 gusting 17 30.0
2019-Aug-24 20:48 037 4 gusting 13 30.6
2019-Aug-24 20:25 039 6 gusting 14 30.6
2019-Aug-24 20:20 021 6 gusting 14 30.0
2019-Aug-24 20:05 326 4 gusting 19 30.0
2019-Aug-24 20:01 065 9 gusting 19 30.6
2019-Aug-24 19:46 018 7 gusting 13 31.1
2019-Aug-24 19:32 023 8 gusting 16 31.1
2019-Aug-24 19:25 017 10 gusting 17 31.1
2019-Aug-24 19:16 078 9 gusting 14 31.1
2019-Aug-24 19:10 022 5 gusting 18 31.7
2019-Aug-24 18:55 012 6 gusting 13 31.7
2019-Aug-24 18:46 028 12 gusting 20 31.1
2019-Aug-24 18:35 058 8 gusting 18 31.7
2019-Aug-24 18:25 343 11 gusting 19 31.1
2019-Aug-24 18:20 111 11 gusting 17 31.1
2019-Aug-24 18:05 360 5 gusting 17 30.6
2019-Aug-24 17:40 360 12 gusting 19 31.7
2019-Aug-24 17:20 084 5 gusting 19 31.7
2019-Aug-24 16:55 292 9 gusting 15 31.1
2019-Aug-24 16:31 325 10 gusting 18 31.1
2019-Aug-24 16:26 334 12 gusting 19 31.1
2019-Aug-24 16:10 020 9 gusting 16 31.7
2019-Aug-24 16:05 062 7 gusting 16 32.2
2019-Aug-24 16:01 045 9 gusting 15 31.7
2019-Aug-24 15:40 099 7 gusting 14 31.7
2019-Aug-24 15:32 356 11 gusting 18 31.1
2019-Aug-24 15:15 052 6 gusting 13 31.1
2019-Aug-24 15:05 026 6 gusting 11 31.1
2019-Aug-24 15:02 061 4 gusting 10 31.1
2019-Aug-24 14:46 309 0 gusting 6 30.6
2019-Aug-24 14:40 039 3 gusting 6 30.0
2019-Aug-24 14:36 086 2 gusting 6 30.0
2019-Aug-24 14:20 013 2 gusting 8 30.0
2019-Aug-24 14:16 217 3 gusting 6 30.0
2019-Aug-24 14:01 026 3 gusting 13 29.4
2019-Aug-24 13:56 033 6 gusting 11 30.0
2019-Aug-24 13:40 320 6 gusting 11 29.4
2019-Aug-24 13:31 051 6 gusting 13 28.9
2019-Aug-24 13:16 085 7 gusting 14 28.3
2019-Aug-24 13:11 014 6 gusting 14 28.3
2019-Aug-24 13:01 065 10 gusting 14 27.8
2019-Aug-24 12:55 141 8 gusting 16 27.8
2019-Aug-24 12:45 311 9 gusting 15 27.8
2019-Aug-24 12:35 207 4 gusting 14 28.3
2019-Aug-24 12:25 103 10 gusting 15 27.8
2019-Aug-24 12:16 356 6 gusting 17 28.3
2019-Aug-24 12:01 045 7 gusting 13 27.8
2019-Aug-24 11:45 108 5 gusting 11 27.8
2019-Aug-24 11:40 231 2 gusting 12 27.8
2019-Aug-24 11:25 040 1 gusting 4 27.2
2019-Aug-24 11:16 024 3 gusting 5 27.2
2019-Aug-24 11:01 326 26.1
2019-Aug-24 10:55 285 0 gusting 2 26.1
2019-Aug-24 10:46 027 1 gusting 3 26.1
2019-Aug-24 10:40 036 0 gusting 2 25.6
2019-Aug-24 10:20 048 2 gusting 4 25.0
2019-Aug-24 10:16 032 1 gusting 3 25.0
2019-Aug-24 10:02 060 1 gusting 4 25.0
2019-Aug-24 09:55 011 0 gusting 4 25.6
2019-Aug-24 09:40 347 0 gusting 2 25.6
2019-Aug-24 09:31 037 1 gusting 3 25.6
2019-Aug-24 09:16 032 1 gusting 5 25.6
2019-Aug-24 09:10 277 2 gusting 5 25.6
2019-Aug-24 09:00 046 3 gusting 5 25.6